Wind_Speed
13 13 14 14 14 14 14 14 15 16 15 15 15 15 15 15 15 16 16 16 16 16 15 15 15 15 15 15 15 15 14 15 16 15 14 15 15 15 16 16 17 17 17
14 14 15 15 15 15 15 15 16 16 16 16 16 16 16 16 16 16 16 18 17 17 16 16 16 16 17 17 17 17 16 16 16 15 15 15 15 15 16 17 17 16 17
16 16 17 16 15 15 16 16 16 17 17 17 16 16 16 16 17 17 17 16 17 17 17 16 16 16 17 17 17 17 17 17 17 17 17 16 16 17 17 17 17 17 18
19 18 17 17 17 17 16 17 17 16 16 17 17 17 17 16 17 17 17 17 17 17 17 17 17 17 18 18 18 18 18 19 18 19 19 18 18 18 18 18 18 18 19
21 20 19 18 17 17 17 17 17 16 16 17 17 17 17 17 17 17 17 17 17 17 17 18 18 18 18 19 19 19 20 20 20 20 20 20 21 20 19 19 19 20 20
21 21 20 19 17 17 17 17 17 18 17 17 17 17 17 17 17 16 16 16 17 17 18 18 18 19 19 19 20 20 21 21 21 21 22 22 22 22 22 21 21 21 22
21 20 20 19 18 19 19 19 18 18 17 17 17 17 18 18 18 17 17 16 17 18 18 18 19 19 20 21 21 21 21 21 21 21 22 22 22 23 23 23 23 23 23
21 21 22 20 20 20 20 20 18 18 18 18 18 18 19 19 18 19 19 18 18 19 19 19 19 20 21 21 21 21 21 21 21 21 21 22 23 23 24 24 24 23 24
23 23 22 21 20 20 20 20 19 19 18 18 18 18 19 19 19 19 19 18 18 18 19 20 21 20 21 21 21 21 21 21 21 21 22 22 23 24 24 24 24 24 24
24 23 23 22 21 20 20 20 19 19 19 18 18 18 17 17 18 18 18 17 18 18 20 21 21 21 21 21 21 21 20 21 21 22 23 23 23 24 24 24 24 24 25
25 24 24 23 22 21 21 22 21 21 20 19 19 18 18 18 19 19 18 18 18 19 20 20 21 21 21 21 21 21 20 21 21 22 22 23 23 24 24 25 25 25 25
26 25 24 23 22 22 23 23 23 23 22 21 20 19 19 19 19 19 18 18 19 19 19 20 20 20 21 20 21 21 21 21 22 22 22 22 23 24 24 25 25 25 25
26 25 25 25 24 23 24 24 24 24 23 22 22 21 21 20 20 19 19 19 19 19 19 19 19 19 20 21 21 21 22 22 22 22 22 22 24 24 24 25 25 25 26
26 26 26 25 25 25 26 25 25 24 23 24 23 22 22 22 21 20 20 21 21 21 20 20 20 20 20 21 21 22 22 22 22 22 23 24 24 25 25 26 26 26 26
26 26 25 25 26 26 27 26 24 24 24 23 24 24 24 23 22 23 22 22 22 22 22 22 22 22 22 22 22 21 22 22 23 23 24 25 26 26 26 26 26 26 27
27 26 26 26 25 26 26 25 25 24 24 24 25 25 25 25 25 24 23 23 24 23 23 23 23 23 23 23 22 22 23 23 24 25 26 26 26 26 26 26 25 25 26
27 26 25 25 25 25 25 25 24 24 24 24 25 26 27 26 26 26 24 24 24 24 24 24 24 24 24 24 24 24 25 25 26 26 27 27 27 27 26 26 26 26 27
27 26 26 26 26 25 25 24 25 25 24 24 25 27 28 28 27 26 25 25 25 25 25 24 24 25 25 25 25 25 25 26 26 26 26 26 26 27 27 27 27 27 27
28 27 26 26 26 26 25 25 25 25 25 24 25 26 26 26 26 26 26 26 25 25 25 25 25 25 25 26 26 26 26 25 26 26 26 26 26 27 28 28 28 29 29
29 28 27 27 27 27 26 26 26 26 25 25 25 25 26 26 26 26 27 27 26 25 25 25 24 25 25 26 27 27 27 26 27 27 28 27 27 28 29 29 30 30 31
28 28 28 28 28 28 28 28 28 27 26 26 26 26 26 26 26 27 26 27 27 26 26 25 25 25 26 26 27 27 27 27 27 27 27 27 28 29 29 29 30 30 31
28 29 29 28 28 28 28 28 28 26 25 25 25 25 25 25 26 26 25 26 27 26 26 26 26 26 26 26 26 27 27 27 27 28 28 28 28 28 28 29 29 30 31
29 28 28 28 28 27 27 27 26 25 24 24 25 25 25 25 24 25 25 26 26 25 26 26 26 26 26 26 27 27 28 28 27 27 28 28 27 27 28 29 30 30 30
28 28 27 27 26 25 26 26 26 25 23 24 24 25 24 24 25 25 25 25 25 26 26 26 26 26 26 26 26 26 27 28 28 27 27 26 26 27 28 28 29 29 30
26 26 26 25 25 25 25 25 25 24 24 24 24 25 25 25 24 24 25 25 25 26 26 26 26 27 26 26 26 26 26 27 27 27 26 26 27 27 28 28 28 29 29
23 24 24 24 25 24 24 24 25 25 25 23 23 23 24 23 24 24 24 25 25 25 27 27 27 27 27 27 27 27 27 27 27 27 27 27 27 27 28 28 28 29 29
Wind_Direction
282 284 288 294 290 290 292 292 291 294 294 289 287 286 283 281 279 280 274 270 265 263 263 263 263 264 265 267 269 272 273 273 275 276 276 271 269 267 268 269 267 267 262
282 287 291 292 288 289 292 293 292 292 291 287 284 284 281 277 278 278 279 270 264 261 259 260 262 264 265 266 267 269 270 273 275 276 276 276 274 272 272 270 270 268 264
277 280 284 285 285 287 289 291 291 289 288 285 282 282 281 280 277 276 276 272 267 264 263 262 263 265 266 267 268 268 268 269 271 272 272 273 274 272 272 270 269 267 266
275 275 278 280 281 283 286 291 292 289 287 285 283 281 280 278 276 275 274 274 272 267 265 265 265 266 265 265 267 268 268 269 270 270 270 270 270 271 270 269 269 267 267
272 272 275 278 278 278 281 287 292 292 289 285 284 281 279 277 275 274 273 271 269 268 267 266 266 268 268 266 267 269 270 270 271 270 269 269 269 270 269 268 268 268 269
271 271 274 274 277 278 280 282 290 292 291 287 284 282 282 279 278 275 273 270 265 265 266 267 267 267 267 266 267 270 272 272 273 272 270 270 269 268 268 267 266 267 269
269 270 273 275 279 282 284 282 287 290 291 288 285 284 283 281 278 275 274 271 268 265 266 268 268 267 267 267 269 270 271 272 273 274 271 271 270 269 268 267 266 267 267
269 274 274 275 277 281 284 285 284 286 288 287 284 284 283 280 277 278 277 272 268 266 266 268 267 267 268 269 270 271 271 272 273 274 274 272 271 269 267 267 266 267 267
274 275 273 273 277 281 284 284 284 283 284 285 283 282 280 276 276 278 278 273 272 271 268 268 268 268 269 270 270 271 272 273 274 274 274 274 272 269 268 268 268 268 267
275 275 274 277 278 279 281 279 281 282 280 280 281 280 280 279 277 279 278 277 274 271 268 269 270 270 268 269 270 271 273 274 275 275 275 275 274 271 268 268 269 268 268
273 274 274 274 274 275 275 276 277 279 278 277 277 278 277 277 280 277 277 278 276 274 272 270 272 271 270 270 271 272 274 275 275 275 276 275 274 273 271 271 270 269 269
275 275 273 271 269 271 272 273 276 278 278 277 275 274 274 274 276 275 275 276 277 278 276 272 271 269 269 270 271 271 273 275 276 276 277 276 274 273 272 271 270 270 270
274 274 274 272 268 268 269 270 274 278 276 275 274 273 272 272 271 271 274 276 277 278 276 276 274 272 270 270 271 273 272 274 276 276 278 278 276 273 273 270 270 272 273
273 275 274 274 269 268 268 269 272 275 276 274 272 271 271 270 270 268 271 276 277 277 275 276 275 274 273 272 272 273 273 274 275 276 279 281 279 278 277 274 272 273 273
272 273 273 274 273 272 272 271 272 273 275 274 271 270 270 271 271 268 268 272 275 276 275 276 276 277 277 278 277 275 275 275 277 278 280 280 279 278 277 275 274 274 274
271 273 275 275 274 274 274 272 271 273 274 273 270 271 271 271 270 268 268 267 269 272 272 273 275 276 276 276 276 276 277 277 278 278 279 280 278 278 277 276 275 275 276
271 271 272 274 274 274 273 272 271 271 272 272 272 272 270 268 267 268 270 268 268 268 270 271 272 274 273 273 273 273 275 278 279 279 279 279 279 278 278 278 277 277 277
270 268 269 272 273 272 271 271 271 271 273 274 274 273 269 267 266 267 269 268 268 268 269 270 272 273 272 272 273 274 277 279 280 280 280 281 281 281 279 277 276 277 277
269 267 269 271 272 271 269 269 271 271 273 273 273 271 269 265 265 266 267 266 266 268 269 271 272 272 273 274 274 277 279 280 281 281 281 282 281 282 280 278 278 278 279
269 269 268 270 270 271 270 268 269 269 270 270 271 270 269 267 266 267 267 264 264 267 270 270 272 273 275 276 276 279 281 280 283 283 281 281 281 282 283 281 279 279 280
268 269 268 269 269 269 268 267 267 267 267 268 269 269 268 267 266 267 267 264 263 264 268 269 272 274 276 278 277 278 281 283 283 284 283 282 281 281 282 281 279 278 279
269 270 269 268 267 267 266 266 266 266 267 267 268 269 269 267 266 266 264 264 263 263 267 268 271 274 277 279 279 280 282 283 284 285 286 285 283 282 283 283 281 280 281
268 269 270 269 266 265 264 265 266 266 265 265 266 267 267 266 266 265 265 266 267 267 269 270 272 275 278 280 280 281 281 283 284 286 287 286 284 284 284 283 282 282 281
268 267 267 267 266 265 265 264 265 266 265 265 266 266 264 265 266 267 266 267 268 269 270 272 274 276 278 279 280 281 282 283 284 286 287 286 285 284 285 286 285 283 283
266 265 265 265 265 264 263 262 261 262 262 262 265 266 266 267 267 268 268 268 269 270 272 273 274 275 277 280 281 283 283 284 285 286 286 285 284 285 286 287 286 285 285
265 265 264 264 264 263 263 260 260 262 262 261 263 266 267 266 268 269 270 271 272 272 273 275 276 277 279 282 282 282 283 285 285 286 286 286 285 287 288 288 288 287 286
Height
5852 5850 5849 5848 5848 5847 5847 5846 5845 5844 5842 5842 5841 5839 5839 5839 5838 5838 5838 5838 5838 5839 5839 5840 5841 5841 5841 5842 5842 5842 5842 5842 5842 5842 5841 5842 5842 5843 5843 5844 5844 5844 5845
5848 5847 5846 5845 5844 5844 5843 5842 5840 5839 5838 5837 5836 5835 5835 5834 5834 5834 5834 5834 5834 5834 5835 5836 5836 5837 5837 5838 5838 5838 5838 5838 5837 5838 5838 5838 5839 5839 5839 5839 5840 5840 5841
5843 5843 5842 5841 5840 5839 5839 5837 5836 5835 5834 5833 5831 5831 5830 5830 5830 5830 5830 5830 5830 5830 5831 5831 5832 5833 5833 5833 5833 5833 5834 5834 5833 5833 5834 5834 5835 5835 5835 5835 5835 5836 5836
5839 5838 5837 5836 5835 5835 5834 5833 5831 5830 5829 5828 5827 5827 5826 5826 5825 5825 5825 5825 5825 5826 5826 5827 5827 5828 5828 5829 5829 5829 5829 5829 5829 5829 5829 5829 5830 5830 5831 5831 5831 5830 5831
5833 5833 5832 5831 5830 5830 5829 5828 5827 5826 5825 5824 5823 5822 5822 5821 5820 5820 5820 5820 5820 5821 5821 5822 5822 5823 5823 5823 5824 5824 5824 5824 5824 5824 5824 5824 5824 5824 5825 5825 5826 5825 5825
5828 5827 5827 5826 5825 5825 5824 5822 5822 5821 5820 5819 5818 5817 5817 5816 5816 5816 5815 5815 5816 5816 5816 5817 5817 5818 5818 5818 5818 5818 5818 5819 5818 5818 5818 5818 5818 5819 5819 5819 5819 5819 5820
5822 5822 5821 5821 5820 5820 5819 5818 5817 5816 5815 5814 5813 5813 5812 5812 5811 5811 5811 5811 5811 5811 5812 5812 5812 5812 5813 5813 5813 5813 5813 5812 5812 5812 5812 5812 5812 5812 5812 5812 5812 5813 5813
5816 5816 5816 5816 5816 5815 5814 5813 5812 5812 5811 5810 5809 5808 5808 5807 5807 5807 5806 5806 5805 5806 5806 5806 5807 5807 5807 5807 5807 5806 5806 5806 5806 5806 5805 5805 5805 5805 5805 5805 5805 5806 5806
5811 5810 5810 5811 5810 5810 5809 5808 5807 5807 5806 5805 5804 5803 5803 5802 5802 5802 5802 5801 5800 5800 5800 5801 5801 5801 5800 5800 5800 5800 5800 5800 5800 5800 5799 5799 5799 5798 5798 5798 5799 5799 5799
5805 5805 5805 5805 5804 5804 5803 5803 5802 5801 5801 5800 5799 5798 5797 5797 5797 5797 5796 5796 5795 5795 5795 5795 5795 5794 5794 5794 5794 5795 5794 5794 5794 5794 5793 5793 5792 5791 5791 5791 5791 5791 5791
5798 5798 5798 5798 5798 5797 5797 5796 5796 5795 5795 5794 5793 5793 5792 5791 5791 5791 5790 5790 5790 5789 5789 5789 5789 5788 5788 5788 5788 5788 5789 5788 5788 5787 5787 5786 5786 5785 5784 5784 5784 5784 5784
5791 5791 5791 5792 5791 5791 5791 5790 5790 5789 5788 5788 5787 5787 5786 5786 5785 5785 5785 5785 5784 5784 5784 5783 5783 5782 5782 5782 5782 5782 5782 5782 5781 5781 5780 5779 5779 5778 5777 5777 5777 5776 5776
5784 5784 5784 5784 5784 5784 5784 5783 5783 5782 5782 5781 5780 5780 5780 5780 5779 5780 5779 5779 5779 5778 5778 5777 5777 5776 5776 5776 5776 5776 5776 5776 5775 5774 5774 5773 5772 5771 5770 5770 5769 5768 5768
5777 5777 5777 5776 5776 5776 5776 5776 5775 5775 5774 5773 5773 5774 5774 5774 5773 5773 5773 5773 5773 5772 5772 5771 5771 5770 5770 5770 5770 5769 5769 5769 5768 5767 5767 5766 5765 5764 5763 5762 5762 5761 5760
5769 5769 5769 5769 5769 5768 5768 5768 5768 5767 5767 5766 5767 5767 5767 5767 5767 5766 5767 5766 5766 5766 5765 5765 5764 5764 5763 5763 5763 5762 5762 5761 5761 5760 5760 5759 5758 5757 5756 5755 5754 5753 5753
5762 5762 5762 5762 5761 5761 5760 5760 5760 5760 5760 5760 5760 5759 5759 5759 5759 5759 5759 5760 5759 5759 5759 5758 5758 5757 5757 5756 5756 5755 5755 5754 5754 5753 5752 5750 5749 5748 5747 5746 5746 5745 5745
5754 5754 5754 5754 5753 5753 5753 5752 5753 5753 5753 5753 5752 5752 5751 5751 5751 5752 5752 5752 5752 5752 5752 5751 5751 5751 5750 5749 5749 5748 5748 5747 5746 5744 5743 5742 5741 5740 5739 5738 5737 5737 5736
5746 5746 5746 5746 5745 5745 5745 5745 5745 5745 5745 5745 5744 5744 5744 5743 5743 5744 5744 5745 5745 5744 5744 5744 5744 5743 5742 5742 5741 5741 5739 5739 5737 5736 5735 5734 5732 5731 5730 5729 5729 5728 5727
5738 5738 5738 5737 5737 5737 5737 5737 5737 5737 5737 5737 5736 5736 5735 5735 5735 5736 5737 5737 5737 5737 5737 5736 5736 5735 5735 5734 5733 5732 5731 5730 5729 5728 5727 5725 5724 5723 5722 5721 5720 5719 5718
5729 5729 5729 5729 5729 5729 5729 5729 5729 5729 5729 5729 5729 5728 5728 5727 5727 5728 5728 5729 5729 5729 5729 5728 5728 5727 5727 5726 5725 5724 5723 5722 5721 5719 5718 5717 5716 5715 5713 5712 5711 5710 5709
5720 5720 5720 5721 5721 5720 5721 5721 5721 5721 5721 5721 5720 5720 5720 5720 5720 5720 5719 5720 5720 5721 5721 5721 5720 5720 5719 5718 5717 5716 5714 5714 5712 5711 5710 5709 5707 5706 5704 5703 5702 5701 5699
5712 5711 5711 5712 5712 5712 5712 5712 5712 5712 5712 5712 5712 5712 5712 5712 5712 5711 5711 5712 5711 5712 5712 5712 5712 5712 5711 5710 5709 5708 5706 5705 5704 5703 5701 5700 5698 5697 5695 5694 5693 5691 5690
5703 5703 5703 5703 5703 5703 5703 5704 5703 5703 5704 5704 5704 5704 5704 5704 5704 5704 5703 5704 5703 5703 5704 5704 5704 5704 5703 5702 5700 5699 5698 5696 5695 5694 5692 5691 5689 5688 5686 5685 5683 5682 5680
5694 5694 5694 5694 5695 5695 5695 5696 5696 5696 5696 5696 5696 5696 5696 5696 5696 5696 5696 5695 5695 5696 5696 5696 5696 5695 5695 5693 5692 5691 5689 5688 5687 5685 5683 5682 5680 5679 5677 5676 5674 5673 5671
5685 5685 5685 5686 5686 5687 5687 5688 5688 5689 5689 5689 5688 5688 5688 5688 5688 5688 5688 5687 5687 5687 5688 5687 5687 5687 5686 5685 5684 5682 5681 5680 5678 5677 5675 5673 5672 5670 5669 5667 5665 5663 5662
5677 5677 5677 5678 5678 5679 5679 5680 5680 5681 5681 5681 5681 5681 5681 5680 5681 5681 5681 5680 5680 5679 5679 5679 5679 5678 5678 5676 5675 5674 5673 5671 5670 5668 5667 5665 5664 5662 5660 5658 5656 5655 5653